When you browse on this site, cookies collect data to enhance your experience and personalize the content and advertising you see.
Visit our Privacy Policy to learn more. By continuing to use the site, you agree to this use of cookies and data.
EN

Hourly Weather Wilczkowo

Today, 27 September, Sunday

Time Temperature Precipitation Wind Pressure Humidity
00:00 +18°C° 0 mm 4 mps 738 mmHg 84%
01:00 +17°C° 0 mm 5 mps 738 mmHg 82%
02:00 +17°C° 0.1 mm 5 mps 738 mmHg 80%
03:00 +16°C° 0.1 mm 6 mps 737 mmHg 78%
04:00 +16°C° 0.1 mm 6 mps 737 mmHg 77%
05:00 +16°C° 0 mm 6 mps 737 mmHg 76%
06:00 +17°C° 0 mm 7 mps 737 mmHg 74%
07:00 +17°C° 0 mm 7 mps 738 mmHg 70%
08:00 +17°C° 0 mm 7 mps 738 mmHg 68%
09:00 +18°C° 0 mm 8 mps 738 mmHg 67%
10:00 +20°C° 0 mm 8 mps 738 mmHg 65%
11:00 +18°C° 0 mm 8 mps 739 mmHg 64%
12:00 +18°C° 0 mm 7 mps 739 mmHg 64%
13:00 +20°C° 0 mm 5 mps 740 mmHg 58%
14:00 +19°C° 0.2 mm 5 mps 740 mmHg 62%
15:00 +17°C° 0.2 mm 5 mps 740 mmHg 67%
16:00 +17°C° 0.2 mm 5 mps 741 mmHg 71%
17:00 +15°C° 0.8 mm 5 mps 742 mmHg 78%
18:00 +14°C° 0.8 mm 5 mps 742 mmHg 84%
19:00 +12°C° 0.8 mm 5 mps 743 mmHg 90%
20:00 +10°C° 0 mm 5 mps 744 mmHg 90%
21:00 +11°C° 0 mm 4 mps 744 mmHg 89%
22:00 +10°C° 0 mm 4 mps 745 mmHg 88%
23:00 +10°C° 0 mm 4 mps 745 mmHg 88%

Tomorrow, 28 September, Monday

Time Temperature Precipitation Wind Pressure Humidity
00:00 +10°C° 0 mm 4 mps 746 mmHg 88%
01:00 +9°C° 0 mm 3 mps 747 mmHg 88%
02:00 +9°C° 0 mm 3 mps 747 mmHg 90%
03:00 +9°C° 0 mm 3 mps 747 mmHg 91%
04:00 +8°C° 0 mm 3 mps 747 mmHg 93%
05:00 +8°C° 0 mm 3 mps 748 mmHg 90%
06:00 +9°C° 0 mm 3 mps 749 mmHg 88%
07:00 +9°C° 0 mm 3 mps 749 mmHg 85%
08:00 +11°C° 0 mm 3 mps 749 mmHg 78%
09:00 +13°C° 0 mm 3 mps 750 mmHg 70%
10:00 +14°C° 0 mm 3 mps 750 mmHg 63%
11:00 +16°C° 0 mm 3 mps 750 mmHg 59%
12:00 +17°C° 0 mm 2 mps 750 mmHg 54%
13:00 +18°C° 0 mm 2 mps 750 mmHg 50%
14:00 +18°C° 0 mm 2 mps 750 mmHg 53%
15:00 +18°C° 0 mm 1 mps 750 mmHg 56%
16:00 +18°C° 0 mm 1 mps 750 mmHg 58%
17:00 +15°C° 0 mm 1 mps 750 mmHg 63%
18:00 +14°C° 0 mm 2 mps 750 mmHg 68%
19:00 +12°C° 0 mm 2 mps 750 mmHg 73%
20:00 +12°C° 0 mm 2 mps 750 mmHg 74%
21:00 +12°C° 0 mm 2 mps 750 mmHg 75%
22:00 +10°C° 0 mm 2 mps 750 mmHg 76%
23:00 +10°C° 0 mm 2 mps 750 mmHg 77%

Day after tomorrow, 29 September, Tuesday

Time Temperature Precipitation Wind Pressure Humidity
00:00 +10°C° 0 mm 2 mps 750 mmHg 77%
01:00 +10°C° 0 mm 2 mps 750 mmHg 78%
02:00 +9°C° 0 mm 2 mps 750 mmHg 79%
03:00 +9°C° 0 mm 2 mps 749 mmHg 79%
04:00 +9°C° 0 mm 2 mps 749 mmHg 80%
05:00 +10°C° 0 mm 2 mps 749 mmHg 80%
06:00 +10°C° 0 mm 3 mps 749 mmHg 79%
07:00 +10°C° 0 mm 3 mps 750 mmHg 79%
08:00 +12°C° 0 mm 3 mps 749 mmHg 74%
09:00 +13°C° 0 mm 4 mps 749 mmHg 70%
10:00 +15°C° 0 mm 4 mps 749 mmHg 65%
11:00 +17°C° 0 mm 4 mps 749 mmHg 63%
12:00 +18°C° 0 mm 4 mps 749 mmHg 61%
13:00 +19°C° 0 mm 4 mps 749 mmHg 59%
14:00 +19°C° 0 mm 4 mps 749 mmHg 62%
15:00 +18°C° 0 mm 4 mps 749 mmHg 65%
16:00 +18°C° 0 mm 3 mps 749 mmHg 67%
17:00 +16°C° 0 mm 3 mps 749 mmHg 73%
18:00 +14°C° 0 mm 3 mps 749 mmHg 79%
19:00 +13°C° 0 mm 3 mps 749 mmHg 85%
20:00 +13°C° 0 mm 3 mps 749 mmHg 83%
21:00 +14°C° 0 mm 2 mps 749 mmHg 81%
22:00 +14°C° 0 mm 2 mps 749 mmHg 80%
23:00 +14°C° 0 mm 2 mps 749 mmHg 80%

30 September, Wednesday

Time Temperature Precipitation Wind Pressure Humidity
00:00 +14°C° 0 mm 2 mps 749 mmHg 79%
01:00 +14°C° 0 mm 2 mps 749 mmHg 79%
02:00 +13°C° 0 mm 2 mps 749 mmHg 81%
03:00 +13°C° 0 mm 2 mps 749 mmHg 83%
04:00 +12°C° 0 mm 2 mps 749 mmHg 85%
05:00 +11°C° 0 mm 3 mps 749 mmHg 84%
06:00 +11°C° 0 mm 3 mps 749 mmHg 83%
07:00 +11°C° 0 mm 3 mps 749 mmHg 81%
08:00 +13°C° 0 mm 3 mps 748 mmHg 75%
09:00 +14°C° 0 mm 4 mps 748 mmHg 68%
10:00 +17°C° 0 mm 4 mps 748 mmHg 61%
11:00 +17°C° 0 mm 4 mps 748 mmHg 60%
12:00 +18°C° 0 mm 4 mps 748 mmHg 59%
13:00 +19°C° 0 mm 4 mps 747 mmHg 57%
14:00 +18°C° 0 mm 4 mps 747 mmHg 60%
15:00 +18°C° 0 mm 4 mps 747 mmHg 62%
16:00 +17°C° 0 mm 4 mps 747 mmHg 65%
17:00 +15°C° 0 mm 4 mps 747 mmHg 70%
18:00 +14°C° 0 mm 4 mps 747 mmHg 75%
19:00 +13°C° 0 mm 3 mps 747 mmHg 79%
20:00 +12°C° 0 mm 3 mps 747 mmHg 84%
21:00 +12°C° 0 mm 3 mps 747 mmHg 88%
22:00 +11°C° 0 mm 3 mps 746 mmHg 92%
23:00 +11°C° 0 mm 3 mps 746 mmHg 93%

1 October, Thursday

Time Temperature Precipitation Wind Pressure Humidity
00:00 +12°C° 0 mm 2 mps 746 mmHg 94%
01:00 +10°C° 0 mm 2 mps 746 mmHg 95%
02:00 +10°C° 0 mm 2 mps 746 mmHg 95%
03:00 +10°C° 0 mm 2 mps 746 mmHg 95%
04:00 +10°C° 0 mm 2 mps 745 mmHg 95%
05:00 +10°C° 0 mm 2 mps 745 mmHg 91%
06:00 +10°C° 0 mm 2 mps 745 mmHg 87%
07:00 +11°C° 0 mm 3 mps 745 mmHg 84%
08:00 +12°C° 0 mm 3 mps 745 mmHg 76%
09:00 +14°C° 0 mm 3 mps 745 mmHg 69%
10:00 +16°C° 0 mm 3 mps 745 mmHg 61%
11:00 +17°C° 0 mm 3 mps 744 mmHg 59%
12:00 +18°C° 0 mm 4 mps 744 mmHg 58%
13:00 +19°C° 0 mm 4 mps 744 mmHg 56%
14:00 +18°C° 0 mm 4 mps 744 mmHg 60%
15:00 +17°C° 0 mm 4 mps 744 mmHg 65%
16:00 +17°C° 0 mm 4 mps 743 mmHg 69%
17:00 +14°C° 0 mm 4 mps 743 mmHg 73%
18:00 +13°C° 0 mm 4 mps 743 mmHg 77%
19:00 +12°C° 0 mm 3 mps 743 mmHg 81%
20:00 +11°C° 0 mm 3 mps 743 mmHg 84%
21:00 +11°C° 0 mm 3 mps 743 mmHg 88%
22:00 +10°C° 0 mm 3 mps 743 mmHg 91%
23:00 +10°C° 0 mm 3 mps 743 mmHg 93%

2 October, Friday

Time Temperature Precipitation Wind Pressure Humidity
00:00 +10°C° 0 mm 3 mps 743 mmHg 95%
01:00 +10°C° 0 mm 3 mps 743 mmHg 97%
02:00 +10°C° 0 mm 3 mps 743 mmHg 96%
03:00 +10°C° 0 mm 3 mps 743 mmHg 96%
04:00 +10°C° 0 mm 3 mps 743 mmHg 96%
05:00 +10°C° 0 mm 3 mps 742 mmHg 94%
06:00 +11°C° 0 mm 4 mps 742 mmHg 93%
07:00 +11°C° 0 mm 4 mps 742 mmHg 91%
08:00 +12°C° 0 mm 4 mps 742 mmHg 86%
09:00 +13°C° 0 mm 4 mps 742 mmHg 81%
10:00 +14°C° 0 mm 4 mps 742 mmHg 75%
11:00 +15°C° 0.1 mm 4 mps 742 mmHg 72%
12:00 +17°C° 0.1 mm 4 mps 742 mmHg 69%
13:00 +17°C° 0.1 mm 5 mps 742 mmHg 66%
14:00 +17°C° 0.3 mm 4 mps 742 mmHg 69%
15:00 +17°C° 0.3 mm 4 mps 742 mmHg 72%
16:00 +16°C° 0.3 mm 3 mps 742 mmHg 75%
17:00 +14°C° 0 mm 3 mps 742 mmHg 80%
18:00 +13°C° 0 mm 3 mps 742 mmHg 84%
19:00 +12°C° 0 mm 3 mps 742 mmHg 89%
20:00 +12°C° 0.1 mm 3 mps 742 mmHg 89%
21:00 +12°C° 0.1 mm 3 mps 742 mmHg 90%
22:00 +12°C° 0.1 mm 4 mps 742 mmHg 91%
23:00 +12°C° 0.1 mm 3 mps 742 mmHg 91%
Show more